sat.trackr.live / text

‹ back to catalog

HAWK-11C

NORAD 62381 · 2024-247E

PAYLOAD ACTIVE UNKNOWN

§ Identity

Operator
Country
US
Launch date
2024-12-21
Launch site
AFWTR
Launch vehicle
Mass (kg)
RCS (m²)

External: N2YO · Heavens-Above · Gunter

§ Orbital elements

Epoch: 2026-09-21T00:36:43.868736Z

Period
94.03 min
Inclination
45.0024°
Eccentricity
0.0002367
Mean motion
15.31427708 rev/d
Perigee alt
469.9 km
Apogee alt
473.2 km
Semi-major
6,849.7 km
B*
1.5701e-4
RAAN
123.2828°
Arg perigee
48.4819°
Mean anomaly
311.6269°
Rev number
9,769

§ Raw data

HAWK-11C1 62381U 24247E   26264.02550774  .00004551  00000+0  15701-3 0  99902 62381  45.0024 123.2828 0002367  48.4819 311.6269 15.31427708 97692

JSON: /api/v1/satellites/62381 · /tle

For live sub-satellite position, see the globe view (requires WebGL).

§ Visibility from observer

Set your observer location to see the next 7 days of passes ≥ 10°. The values pass through the URL so the page stays shareable.

No JS? Fill the form by hand. The geolocation button needs JavaScript.